Location: ??????????
(31.2156°N, 29.9553°E)
Time: 23:25:24
(UTC+00:00)

Daily predictions for brighter satellites

Satellite Brightness Start Highest point End
(mag) Time Altitude Azimuth Time Altitude Azimuth Time Altitude Azimuth
Cosmos 1821 Rocket 4.2 17:20:57 10° N 17:27:07 81° W 17:33:20 10° S
OAO 3 Rocket 3.2 17:23:37 10° WNW 17:28:30 90° NNE 17:33:20 10° ESE
Meteor 2-4 Rocket 3.9 17:24:00 10° S 17:29:45 59° E 17:35:34 10° NNE
CSL-04 DEB 4.4 17:30:32 10° S 17:34:06 69° WSW 17:37:43 10° NNW
SL-08 R/B 3.2 17:29:36 10° NNE 17:34:13 69° ESE 17:38:46 10° S
COSMOS 2428 4.0 17:35:37 10° N 17:40:17 25° ENE 17:44:55 10° ESE
Delta 2 Rocket 4.0 17:37:48 10° WNW 17:41:33 47° N 17:45:32 10° E
Cosmos 2297 Rocket 2.6 17:39:07 10° S 17:44:22 41° ESE 17:49:39 10° NE
Cosmos 1048 Rocket 3.9 17:43:35 10° S 17:48:39 79° ESE 17:53:48 10° NNE
GENESIS II 3.4 17:45:49 10° NNW 17:48:40 64° ENE 17:51:10 13° SE
USA 305 2.5 17:50:21 10° SSW 17:54:12 70° SE 17:58:05 10° NE
Cosmos 1408 Rocket 3.8 17:51:37 10° N 17:55:45 47° E 17:59:45 11° SSE
Cosmos 1500 Rocket 4.1 17:53:40 10° N 17:57:52 41° E 18:01:31 13° SSE
Sich 1 3.1 17:54:35 10° N 17:58:40 52° E 18:02:33 11° SSE
CZ-4B R/B 4.0 17:59:48 13° SE 18:03:57 43° ENE 18:08:48 10° N
IUS-18 SRM-1 3.7 17:49:58 10° WSW 18:05:13 60° S 18:08:25 15° E
Delta 198 4.1 18:05:01 10° WSW 18:08:26 29° S 18:10:06 20° SE
Cosmos 2322 Rocket 4.2 18:04:29 10° NW 18:08:56 25° WSW 18:13:21 10° SSW
Cosmos 2360 Rocket 3.9 18:05:19 10° NW 18:10:05 29° WSW 18:14:52 10° SSW
Centaur D AC-28 4.5 18:05:44 10° W 18:12:22 59° S 19:17:11 10° ESE
Centaur D AC-28 4.5 18:05:44 10° W 18:12:22 59° S 19:17:10 10° ESE
Centaur D AC-28 4.5 18:05:43 10° W 18:12:23 59° S 19:17:10 10° ESE
Cosmos 1908 3.2 18:09:36 10° NNW 18:12:45 59° W 18:15:52 10° S
Cosmos 2227 Rocket 2.9 18:08:09 10° SSE 18:13:00 31° ESE 18:17:53 10° NE
Meteor PRIRODA 4.1 18:12:36 24° ESE 18:13:28 28° ENE 18:16:01 10° NNE
Meteor 2-15 Rocket 4.5 18:07:52 10° N 18:13:53 62° E 18:19:09 14° SSE
Cosmos 2322 3.8 18:10:31 10° NNW 18:16:11 64° ENE 18:20:19 19° SSE
Terra 2.9 18:15:34 19° ESE 18:17:49 27° ENE 18:21:46 10° NNE
Cosmos 2263 Rocket 3.8 18:18:11 15° E 18:18:11 15° E 18:21:09 10° ENE
SPOT 5 2.6 18:15:05 16° SSE 18:18:34 71° ENE 18:23:10 10° N
CZ-4 R/B 2.6 18:16:31 10° SSW 18:20:04 37° W 18:23:34 10° NNW
Cosmos 1805 Rocket 3.4 18:17:14 10° N 18:21:34 77° E 18:24:45 18° S
PAYLOAD B 4.5 18:17:08 10° S 18:22:43 72° WSW 18:28:18 10° NNW
Helios 1A 2.9 18:19:58 10° NNE 18:23:50 55° E 18:26:36 18° S
SL-24 DEB 4.2 18:20:48 17° SSE 18:24:17 67° E 18:28:51 10° N
NOSS 3-2 (C) 4.3 18:16:19 10° NNW 18:24:22 76° ENE 18:31:14 20° SE
FUSE 4.5 18:21:54 10° WSW 18:26:53 41° S 18:29:19 25° SE
CZ-4B R/B 3.1 18:22:33 13° SSE 18:27:15 85° WSW 18:32:34 10° NNW
RESURS DK-1 3.7 18:28:17 21° E 18:28:17 21° E 18:30:41 10° NE
Okean O Rocket 1.6 18:29:24 27° SE 18:31:34 59° ENE 18:35:48 10° N
ADEOS 4.5 18:26:57 10° S 18:31:55 46° W 18:36:55 10° NNW
Meteor 2-8 Rocket 4.4 18:26:07 10° N 18:32:13 67° E 18:36:23 21° SSE
Cosmos 1151 Rocket 4.2 18:30:14 10° SSW 18:34:15 43° W 18:38:18 10° N
Helios 1B rocket 2.1 18:37:16 31° S 18:38:55 86° WSW 18:42:37 10° NNW
NOSS 2-2 (E) 4.4 18:34:21 10° NNW 18:39:00 58° ENE 18:42:11 28° SE
Cosmos 1535 Rocket 4.4 18:33:00 10° N 18:39:09 88° W 18:43:56 17° S
ERS-1 Rocket 3.1 18:37:20 28° SE 18:39:49 59° ENE 18:44:44 10° N
CZ-4B R/B 2.7 18:38:50 29° S 18:40:31 70° WSW 18:44:00 10° NNW
Resurs 01 Rocket 4.3 18:38:47 10° SW 18:41:09 14° W 18:43:31 10° WNW
Cosmos 1300 2.0 18:38:29 10° N 18:41:36 69° E 18:41:57 61° SE
Cosmos 1605 Rocket 3.9 18:36:38 10° N 18:42:46 87° E 18:47:02 21° S
Cosmos 921 Rocket 2.9 18:41:01 30° S 18:42:53 59° ESE 18:47:06 10° NNE
Cosmos 1743 Rocket 3.6 18:41:23 10° N 18:45:41 75° W 18:47:57 27° S
Cosmos 2219 Rocket 4.0 18:42:32 10° NW 18:47:00 25° WSW 18:51:28 10° SSW
Cosmos 1470 4.4 18:46:55 10° NNW 18:49:58 27° W 18:52:27 13° SW
SL-14 R/B 3.3 18:52:14 53° SE 18:52:41 58° E 18:56:32 10° NNE
USA 186 4.3 18:52:04 10° SW 18:53:26 13° W 18:54:49 10° WNW
In-Cosmos 22 4.2 18:49:04 15° S 18:54:00 88° W 18:59:43 10° N
USA 215 3.3 18:55:30 30° SSE 18:58:55 69° SW 19:05:26 10° NW
Sakura Rocket 3.1 19:00:29 10° W 19:04:32 62° S 19:05:09 56° SE
Cosmos 2237 Rocket 2.5 18:59:52 10° N 19:05:25 53° ENE 19:06:54 42° ESE
SL-4 R/B 4.3 19:14:01 14° NE 19:14:01 14° NE 19:14:34 10° NE
OAO 3 Rocket 4.3 19:07:15 10° W 19:11:23 28° SSW 19:11:29 28° SSW
Meteor 2-10 Rocket 3.5 19:07:56 10° N 19:13:35 81° E 19:15:04 50° SSE
Okean-O 3.0 19:12:53 42° SSW 19:14:04 57° W 19:18:23 10° NNW
DNEPR-1 R/B 4.2 19:08:54 10° SSW 19:15:41 76° ESE 19:21:13 10° NNE
Cosmos 1666 Rocket 3.5 19:12:55 10° N 19:17:22 84° W 19:17:54 69° S
Delta 2 Rocket 3.4 19:16:52 10° WNW 19:20:29 66° WSW 19:20:29 66° WSW
Meteor 1-22 Rocket 4.5 19:17:25 10° N 19:22:37 47° E 19:22:58 46° E
COSMOS 2428 3.9 19:19:22 10° NW 19:24:30 35° WSW 19:27:02 24° SSW
BREEZE-M DEB (TANK) 3.5 19:15:40 10° NW 19:25:57 50° NNE 19:27:01 41° ENE
Cosmos 1633 Rocket 2.9 19:23:13 10° N 19:27:32 79° W 19:27:33 79° W
Lacrosse 4 Rocket 3.1 19:25:43 10° N 19:28:31 22° NE 19:28:31 22° NE
SAR-Lupe-2 4.4 19:30:17 49° NNW 19:30:17 49° NNW 19:33:00 10° NNW
Ariane Rocket 3.1 19:29:52 58° E 19:30:03 58° ENE 19:35:02 10° N
SPOT 3 Rocket 3.4 19:34:02 70° E 19:34:17 72° ENE 19:39:25 10° N
Cosmos 1269 Rocket 4.3 19:40:14 53° ENE 19:40:14 53° ENE 19:44:38 10° NNE
ARIANE 6 FM1 Upper Stage 3.1 19:36:43 10° NNW 19:40:10 59° NW 19:40:10 59° NW
Cosmos 1470 Rocket 4.0 19:43:41 10° N 19:47:20 60° NW 19:47:20 60° NW
ATLAS 2A CENTAUR R/B 4.0 19:45:29 10° W 19:50:35 24° WSW 19:50:35 24° WSW
Cosmos 1302 Rocket 4.1 19:46:35 10° NNW 19:51:48 67° WSW 19:51:53 67° WSW
Cosmos 2173 Rocket 3.9 19:45:53 10° N 19:52:02 76° W 19:52:58 63° SSW
Meteor 1-23 Rocket 4.1 19:53:18 75° SW 19:53:40 80° W 19:59:16 10° N
IRS-1C Rocket 4.4 19:54:14 55° WSW 19:54:35 56° WSW 19:59:45 10° NNW
Terra 3.6 19:54:12 21° WSW 19:55:14 22° W 19:58:53 10° NW
Centaur D-1A AC-32 4.2 19:07:48 10° WSW 19:55:23 54° S 19:56:54 49° SSE
Cosmos 2227 Rocket 4.0 19:52:09 10° WSW 19:56:55 28° WNW 20:01:43 10° N
Cosmos 1992 Rocket 4.2 19:53:41 10° N 19:58:12 62° NNE 19:58:12 62° NNE
Cosmos 1864 Rocket 4.3 19:52:50 10° N 19:59:03 82° E 19:59:22 79° SE
ATLAS CENTAUR R/B 3.1 19:55:49 10° NNW 19:57:42 26° N 19:57:42 26° N
Meteor 1-21 4.1 19:59:51 87° NNE 19:59:51 87° NNE 20:05:29 10° N
SL-16 R/B 2.9 19:54:48 10° N 19:59:47 41° ENE 19:59:47 41° ENE
Cosmos 2263 Rocket 2.7 19:59:45 41° WSW 20:01:25 56° WNW 20:07:01 10° N
Cosmos 2233 Rocket 4.3 19:59:10 10° N 20:05:03 53° ENE 20:05:03 53° ENE
COSMOS 2455 2.9 20:01:18 10° NNW 20:07:18 69° WSW 20:07:19 69° WSW
Cosmos 2100 Rocket 4.4 20:01:40 10° NNW 20:07:35 52° W 20:08:37 47° WSW
Cosmos 1725 Rocket 3.9 20:10:48 10° N 20:17:06 78° W 20:17:14 77° WSW
Cosmos 2219 4.2 20:20:35 35° WSW 20:22:06 43° WNW 20:27:32 10° N
Cosmos 2082 4.4 20:31:12 47° W 20:31:36 48° WNW 20:37:07 10° N
Cosmos 2237 Rocket 4.3 20:45:41 10° WNW 20:48:43 16° W 20:48:43 16° W
Cosmos 2061 Rocket 4.4 20:49:14 10° NNW 20:54:39 55° WNW 20:54:39 55° WNW
Lacrosse 4 Rocket 4.3 21:03:35 10° NW 21:04:06 12° WNW 21:04:06 12° WNW
Cosmos 1844 Rocket 3.7 21:13:11 42° N 21:13:11 42° N 21:16:53 10° NNE
USA 234 4.2 21:12:40 10° NE 21:16:31 37° ENE 21:16:31 37° ENE
ATLAS 2AS CENTAUR R/B 3.2 21:37:43 56° NE 21:37:43 56° NE 21:43:07 10° NNE
SL-16 R/B 4.4 21:39:48 10° NW 21:41:38 16° WNW 21:41:38 16° WNW
SL-12 R/B(2) 4.1 21:48:12 75° ENE 21:48:12 75° ENE 21:56:19 10° NNE
Cosmos 2344 4.3 21:40:45 10° NNW 21:49:50 79° ENE 21:52:06 62° SE
SeaSat 1 4.3 21:57:55 27° NNE 21:57:55 27° NNE 22:00:40 10° N
Cosmos 2278 Rocket 4.2 22:29:17 20° ENE 22:29:17 20° ENE 22:31:40 10° NE
CZ-2C R/B 4.2 22:33:05 29° NE 22:33:05 29° NE 22:36:39 10° N
Cosmos 1943 Rocket 4.1 22:36:09 19° ENE 22:36:09 19° ENE 22:38:27 10° NE
SJ 16-02 4.0 22:38:57 16° NNW 22:38:57 16° NNW 22:40:05 10° N
USA 59 Rocket 2.6 23:07:36 10° NNW 23:08:26 16° NNW 23:08:26 16° NNW
ADEOS II 4.5 23:16:28 10° ENE 23:18:30 12° E 23:19:00 12° E
ATLAS 3B R/B 4.0 23:12:18 10° NNW 23:19:35 41° NE 23:26:17 11° ESE
Cosmos 2026 Rocket 4.5 23:21:59 52° E 23:21:59 52° E 23:28:02 10° NNE
NOSS 3-1 (A) 4.4 23:25:29 10° NW 23:32:25 52° W 23:32:25 52° W
FENGYUN 3A 4.5 23:30:05 10° NNE 23:34:43 43° E 23:34:43 43° E
Atlas Centaur 2 3.7 23:40:33 37° SE 23:40:33 37° SE 23:46:49 10° E
Cosmos 1814 Rocket 4.4 23:36:41 10° NNW 23:41:10 60° NNE 23:41:10 60° NNE
Milstar 3 4.5 23:22:27 10° W 23:42:27 47° SW 23:52:57 10° SE
H-2A R/B 3.7 23:38:31 10° NNE 23:40:40 29° NE 23:40:40 29° NE
IDEFIX/ARIANE 42P 3.0 23:37:12 10° NNE 23:41:28 60° N 23:41:28 60° N
Cosmos 1833 Rocket 3.1 23:39:49 10° NNW 23:44:08 54° NNW 23:44:08 54° NNW
Meteor 1-11 4.4 23:49:11 66° NW 23:49:11 66° NW 23:54:21 10° N
MSX 3.8 23:46:01 10° N 23:51:24 74° NW 23:51:24 74° NW
ATLAS 5 CENTAUR R/B 3.9 23:54:37 13° NE 23:54:37 13° NE 23:55:04 10° NE
